Location: Kermapucano
(48.0667°N, 3.3000°W)
Time: 20:09:17
(UTC+00:00)

Meteor 2-12 Rocket - Pass Details

Date: 29 November 2020
Orbit: 935 x 958 km, 82.5° (Epoch: 27 January)

Event Time Altitude Azimuth Distance (km) Brightness Sun altitude
Rises 06:48:28 0° 195° (SSW) 3,617 7.6 -8.5°
Reaches altitude 10° 06:50:58 10° 197° (SSW) 2,678 6.9 -8.1°
Maximum altitude 06:57:05 71° 281° (W) 1,015 4.5 -7.2°
Drops below altitude 10° 07:03:16 10° 6° (N) 2,702 6.6 -6.2°
Sets 07:05:48 0° 9° (N) 3,653 7.3 -5.8°
